Simultaneous Nadir Overpasses (SNOs) Predictions

Prediction of SNOs between GOES-16 and AQUA Satellite Orbit:

Table of predicted SNOs for the next 14.0 days since TLE Epoch: 5/24/2017
Index Date Time (GOES-16) GOES-16 Lat,Lon AQUA Lat,Lon Distance(km) Time Diff (sec)
1 05/24/2017 19:24:54 -0.00, -89.48 0.53, -87.10 270.86 80
2 05/25/2017 07:46:09 0.00, -89.49 0.60, -92.25 313.85 80
3 05/27/2017 07:31:18 -0.00, -89.49 -0.07, -89.30 22.13 80
4 05/29/2017 07:19:06 -0.01, -89.49 -0.68, -86.34 357.90 80
5 05/29/2017 19:40:29 0.01, -89.47 -0.43, -91.53 234.32 80
6 05/31/2017 19:30:58 0.01, -89.48 0.19, -88.57 102.58 80
7 06/01/2017 07:52:13 -0.01, -89.50 0.87, -93.74 481.35 80
8 06/02/2017 19:18:46 0.02, -89.49 0.81, -85.62 440.19 80
9 06/03/2017 07:40:01 -0.02, -89.52 0.24, -90.78 143.61 80
10 06/05/2017 07:25:09 -0.02, -89.53 -0.39, -87.82 194.61 80
11 06/05/2017 19:46:33 0.02, -89.52 -0.72, -93.01 397.41 80




NCC Satellite Simultaneous Nadir Overpasses (SNOs) Prediction Service
